Location: Feydey
(46.3431°N, 7.0106°E)
Time: 09:27:59
(UTC+00:00)

Cosmos 1992 Rocket - Pass Details

Date: 20 June 2021
Orbit: 758 x 766 km, 74.0° (Epoch: 04 August)

Event Time Altitude Azimuth Distance (km) Brightness Sun altitude
Exits shadow 21:37:54 20° 182° (S) 1,688 5.3 -15.5°
Maximum altitude 21:41:23 61° 107° (ESE) 862 4.0 -15.7°
Drops below altitude 10° 21:46:32 10° 28° (NNE) 2,309 7.0 -16.1°
Sets 21:48:57 0° 25° (NNE) 3,240 7.8 -16.3°
